Wind_Speed
16 16 16 16 16 16 16 16 16 16 16 15 16 16 16 17 18 19 20 21 21 21 21 21 21 20 21 22 22 23 24 24 24 25 25 25 25 26 25 26 26 26 27
17 17 17 17 17 17 17 17 17 17 17 18 18 17 17 19 19 20 20 21 21 21 21 21 21 21 22 22 23 23 24 25 25 25 26 26 27 27 28 27 27 27 28
19 19 18 18 17 18 17 18 18 18 19 19 19 19 20 20 21 20 21 21 21 21 21 21 22 22 23 23 24 24 25 25 25 26 26 26 27 28 29 29 28 28 28
20 19 19 18 18 18 18 19 19 19 20 19 20 20 21 21 21 21 21 22 22 22 22 23 23 23 24 24 25 25 25 25 26 26 26 27 28 28 29 29 30 30 30
20 20 20 20 20 20 20 20 20 21 21 21 21 21 21 21 22 21 22 22 23 23 23 24 24 24 25 25 25 26 27 27 27 27 27 27 27 28 28 29 30 30 30
20 20 21 21 21 21 21 21 22 22 22 22 22 22 22 22 21 21 22 23 23 23 24 24 25 25 26 26 26 27 27 28 28 28 28 28 28 28 28 28 29 29 29
22 22 22 22 22 22 22 23 24 24 23 23 23 22 22 22 22 23 24 24 24 24 25 25 25 26 26 27 27 27 28 28 28 28 28 28 28 28 29 29 29 29 29
22 22 23 23 23 24 24 24 25 24 24 23 23 23 23 23 24 24 25 25 25 25 25 25 25 26 27 27 27 27 28 27 27 27 28 28 28 28 29 29 29 30 30
23 24 25 25 25 25 25 25 25 24 24 24 24 25 24 24 24 24 25 25 26 26 26 26 27 27 27 27 28 28 28 28 28 27 28 28 28 28 29 29 29 29 30
25 26 26 27 27 26 26 25 25 25 25 25 25 25 25 25 25 26 26 26 26 26 26 27 27 27 27 27 28 27 27 27 27 27 27 28 28 29 29 29 29 30 30
26 26 26 27 27 26 26 26 26 26 26 26 25 25 25 26 26 26 26 27 27 27 27 27 27 28 28 27 27 27 27 27 28 29 29 29 28 28 29 29 29 29 29
25 26 27 27 27 26 27 27 27 26 25 25 25 25 26 27 27 27 27 27 27 27 27 27 28 28 28 28 28 28 28 29 29 28 28 28 29 29 28 28 28 28 28
26 26 26 26 26 26 27 26 26 26 25 25 25 26 27 28 28 28 28 28 27 28 28 28 28 28 28 28 28 28 28 28 27 27 26 27 28 28 28 27 27 27 28
27 27 27 27 26 26 26 26 26 26 26 26 27 27 27 28 29 29 29 28 28 28 28 28 28 28 29 28 28 28 28 27 26 25 25 25 25 26 26 26 26 27 27
27 27 27 27 27 26 26 26 26 26 27 27 28 28 28 29 29 29 28 28 28 27 27 27 27 27 27 27 27 27 25 24 24 25 24 25 25 25 25 25 26 26 26
27 27 27 27 27 27 27 27 27 27 27 28 28 29 29 29 29 28 28 28 27 27 27 27 27 27 27 27 27 26 25 24 24 24 24 24 24 24 24 25 25 25 24
27 27 27 27 28 28 28 28 28 28 28 28 28 28 29 29 29 28 28 27 28 28 28 28 28 28 27 26 26 25 24 25 25 24 24 23 23 23 23 23 23 23 23
27 27 27 28 28 29 29 28 28 28 28 28 28 28 28 28 29 28 28 28 28 28 28 28 27 27 26 25 25 25 25 25 24 24 23 23 24 24 23 22 22 22 22
27 28 28 28 29 29 29 29 29 29 29 29 29 29 29 29 29 28 28 28 28 28 27 27 26 26 25 25 25 25 24 24 24 24 24 24 24 24 23 23 22 22 22
28 28 28 28 29 29 29 30 30 30 29 29 29 29 29 29 28 28 28 28 28 27 27 26 25 25 25 25 25 25 25 24 24 24 24 24 24 24 23 23 23 23 23
28 28 28 29 29 29 29 30 30 29 29 29 29 29 28 27 27 28 28 28 27 27 27 27 26 25 25 25 25 25 25 24 24 24 23 23 23 23 23 23 23 23 23
27 28 28 28 28 29 30 30 29 29 28 28 27 27 26 27 27 27 27 27 27 27 27 26 26 25 25 25 24 24 23 23 23 23 22 21 22 22 23 23 24 24 24
27 28 28 28 28 28 29 28 28 27 27 26 26 26 26 26 26 26 26 26 25 25 25 25 25 25 25 23 22 21 21 21 22 23 23 23 23 23 23 22 23 24 24
27 27 27 28 28 28 28 27 27 26 25 25 25 25 25 25 25 26 25 25 25 25 25 24 24 24 23 22 22 22 22 22 22 22 22 23 22 22 22 22 22 23 23
27 27 27 27 27 27 27 26 25 25 25 25 25 25 25 25 25 25 25 25 24 24 24 24 24 23 22 22 23 23 22 22 21 21 22 22 22 21 21 22 21 21 21
26 26 27 27 26 26 25 25 24 24 24 24 25 25 25 25 24 24 25 25 24 24 24 24 24 22 22 22 22 21 21 21 21 21 20 20 20 21 21 21 21 20 20
Wind_Direction
316 315 314 315 316 315 314 313 310 307 303 303 302 300 298 298 299 297 296 292 292 289 285 284 283 282 283 282 281 279 277 275 274 271 269 268 268 267 264 263 262 262 261
315 314 314 314 313 314 313 312 309 306 302 302 303 300 298 298 299 300 297 295 294 293 288 285 284 283 282 281 280 280 279 277 276 273 270 269 268 266 265 265 263 262 262
312 312 312 312 311 312 313 313 311 308 304 300 299 298 297 298 299 299 299 297 295 293 290 286 284 283 282 280 278 279 278 278 276 274 271 270 269 267 267 266 265 263 262
309 309 310 310 310 312 311 311 310 308 306 301 298 299 297 297 297 297 296 295 295 294 292 290 287 284 283 282 278 278 277 277 276 275 272 269 269 269 268 267 267 266 264
308 306 306 307 309 310 310 310 308 307 305 302 300 298 297 297 297 297 296 295 294 294 293 291 289 287 285 283 280 278 277 276 276 275 273 272 271 270 270 269 268 267 266
306 305 304 305 308 310 310 310 309 308 306 303 302 300 299 297 296 298 299 298 297 295 293 292 289 288 288 285 283 281 280 279 278 276 273 273 271 270 270 269 268 267 267
304 304 306 304 306 307 308 309 310 309 306 304 303 302 300 298 298 298 298 298 297 296 294 292 291 290 289 287 285 283 281 281 279 278 276 275 273 270 270 269 268 267 266
301 302 303 303 304 305 305 305 306 306 305 304 303 303 301 301 299 297 297 297 297 296 295 293 291 291 290 288 286 285 284 282 281 280 277 275 274 270 269 268 269 269 268
299 300 301 301 301 302 302 302 303 304 304 305 306 304 302 299 298 298 298 297 297 296 295 295 293 291 289 288 287 286 285 283 282 280 277 273 272 271 270 270 271 271 269
297 298 299 300 300 300 300 300 302 303 305 306 306 304 302 300 299 298 297 298 298 297 297 297 295 295 292 289 287 286 286 283 281 280 278 276 274 274 274 273 272 272 270
296 298 299 300 300 300 301 301 303 303 303 303 303 302 302 302 301 300 298 298 297 296 296 295 295 294 293 291 288 287 286 284 282 282 281 278 276 275 275 273 273 273 271
297 299 300 301 301 301 300 300 301 301 301 301 302 304 305 305 303 302 300 298 296 296 295 293 294 294 293 292 290 288 287 286 284 282 280 278 277 277 274 272 273 272 271
297 299 300 301 301 300 299 299 300 302 302 304 304 305 306 306 304 303 301 299 298 296 295 294 293 293 293 292 291 291 289 287 285 283 282 279 276 275 274 271 271 271 271
298 299 300 300 300 301 302 301 301 302 304 305 305 305 306 306 305 304 303 302 301 299 297 295 294 293 293 292 291 291 290 288 287 285 283 282 280 276 274 273 273 272 272
300 301 301 303 302 301 303 304 303 303 304 305 304 304 304 304 304 304 304 303 302 302 301 299 297 295 294 293 292 292 290 288 287 287 285 282 279 277 274 274 274 274 274
299 300 301 302 303 302 302 303 304 304 304 304 304 304 304 304 304 303 303 302 302 302 302 302 301 299 297 294 292 291 289 290 290 289 286 284 279 277 277 275 274 274 273
299 299 300 301 302 301 301 301 302 303 303 303 302 303 303 304 304 304 303 302 302 302 302 303 304 302 298 295 292 290 288 287 287 286 284 282 279 277 277 276 274 273 273
300 300 301 301 301 301 301 301 302 302 302 303 302 302 303 303 303 303 301 301 302 303 303 303 304 303 300 295 292 291 288 287 285 285 284 282 280 278 277 275 274 273 273
301 300 300 300 301 302 302 301 301 302 302 302 302 302 302 302 303 302 302 301 301 302 303 304 303 302 300 297 294 291 288 285 283 283 283 282 281 279 277 275 272 271 272
301 300 300 300 302 303 302 302 301 302 302 302 302 302 302 302 303 302 302 303 302 302 303 304 304 302 299 297 295 293 287 283 280 280 282 282 280 279 277 275 273 272 271
302 301 302 302 303 304 303 302 302 301 301 300 301 302 302 302 302 302 303 304 304 303 302 303 302 301 298 296 294 293 289 283 281 280 280 281 280 279 278 275 273 272 271
304 304 305 304 304 304 304 303 302 301 301 302 302 302 302 302 302 303 303 304 304 302 302 302 302 300 299 299 297 294 289 284 281 282 281 280 280 279 278 275 272 271 269
304 306 306 305 306 306 306 305 305 304 303 302 301 302 303 304 304 304 303 305 305 304 303 303 302 301 300 298 297 296 293 289 286 282 280 280 278 276 276 275 274 273 270
304 305 306 307 308 308 307 306 305 304 303 302 302 303 304 304 304 304 304 305 305 305 304 303 302 303 302 299 296 295 295 294 291 287 283 281 280 276 273 273 274 273 270
304 305 307 308 308 308 308 306 304 304 304 302 302 303 304 304 304 304 305 305 304 304 305 304 304 305 304 302 298 296 295 295 294 292 287 284 281 279 276 275 274 272 270
306 306 307 309 309 309 309 309 307 306 305 304 303 304 304 304 304 305 305 305 304 303 304 305 306 304 304 304 301 299 297 296 295 293 289 285 283 281 280 277 274 273 271
Height
5869 5866 5864 5862 5859 5857 5855 5852 5850 5848 5846 5844 5842 5841 5839 5837 5836 5834 5832 5831 5829 5828 5826 5825 5824 5822 5821 5820 5819 5819 5818 5817 5817 5816 5815 5815 5814 5814 5814 5814 5815 5815 5816
5866 5863 5861 5859 5856 5854 5851 5849 5846 5844 5842 5840 5838 5836 5835 5833 5831 5829 5827 5825 5824 5822 5820 5819 5818 5817 5816 5814 5813 5812 5812 5811 5810 5809 5808 5808 5807 5807 5807 5807 5808 5808 5809
5862 5860 5858 5855 5853 5850 5848 5845 5843 5840 5838 5836 5834 5832 5830 5828 5826 5824 5822 5820 5818 5816 5815 5813 5812 5811 5809 5808 5807 5806 5805 5804 5803 5802 5801 5800 5800 5799 5799 5800 5800 5800 5801
5859 5856 5854 5852 5849 5847 5844 5842 5839 5837 5834 5831 5829 5827 5825 5822 5821 5819 5817 5815 5813 5811 5809 5807 5805 5804 5803 5801 5800 5799 5798 5796 5795 5794 5793 5793 5792 5792 5791 5791 5792 5792 5792
5855 5852 5850 5848 5846 5843 5841 5838 5835 5832 5830 5827 5824 5822 5820 5817 5815 5813 5811 5809 5807 5805 5803 5801 5799 5797 5795 5794 5793 5792 5790 5789 5788 5786 5786 5785 5784 5783 5783 5783 5783 5783 5783
5850 5848 5846 5844 5841 5839 5836 5833 5830 5827 5825 5822 5819 5817 5814 5812 5810 5808 5805 5803 5801 5799 5796 5794 5792 5791 5789 5787 5785 5784 5782 5781 5780 5778 5777 5776 5776 5775 5775 5774 5774 5775 5775
5846 5844 5841 5839 5836 5834 5831 5828 5825 5822 5819 5817 5814 5811 5809 5806 5804 5802 5799 5797 5794 5792 5790 5787 5785 5783 5781 5780 5778 5776 5775 5773 5772 5770 5769 5767 5767 5766 5766 5766 5765 5765 5766
5841 5838 5836 5833 5831 5828 5826 5823 5820 5817 5814 5811 5808 5805 5803 5800 5798 5795 5793 5790 5787 5785 5783 5780 5778 5776 5774 5772 5770 5768 5766 5765 5763 5761 5761 5759 5758 5758 5757 5757 5757 5756 5756
5835 5833 5830 5827 5825 5822 5819 5817 5814 5811 5808 5805 5802 5799 5796 5794 5791 5789 5786 5783 5780 5778 5775 5773 5771 5768 5766 5764 5762 5760 5758 5756 5754 5752 5751 5751 5750 5749 5748 5748 5747 5747 5747
5829 5827 5824 5821 5818 5815 5813 5810 5807 5804 5801 5798 5795 5792 5790 5787 5785 5782 5779 5776 5773 5770 5768 5765 5763 5761 5758 5755 5753 5751 5749 5747 5745 5744 5743 5742 5741 5740 5739 5739 5738 5738 5737
5823 5820 5817 5814 5811 5809 5806 5803 5800 5797 5794 5791 5788 5785 5782 5780 5777 5774 5771 5768 5766 5763 5760 5758 5755 5753 5750 5747 5745 5743 5740 5738 5736 5735 5734 5732 5731 5730 5730 5729 5728 5728 5728
5816 5813 5811 5808 5805 5802 5800 5797 5794 5791 5787 5784 5781 5778 5775 5772 5769 5766 5763 5760 5757 5755 5752 5750 5747 5744 5742 5739 5736 5734 5731 5729 5727 5725 5724 5723 5722 5721 5720 5720 5719 5718 5718
5810 5807 5804 5801 5798 5795 5792 5789 5787 5783 5780 5777 5774 5771 5768 5764 5761 5758 5755 5752 5749 5746 5743 5740 5738 5735 5733 5730 5728 5725 5722 5720 5718 5716 5715 5714 5713 5712 5711 5711 5710 5710 5709
5803 5800 5797 5794 5791 5788 5785 5782 5779 5776 5773 5770 5767 5763 5760 5757 5753 5750 5747 5743 5740 5737 5734 5731 5729 5726 5723 5721 5718 5716 5713 5711 5709 5707 5706 5704 5703 5703 5702 5702 5701 5701 5701
5796 5793 5790 5787 5784 5781 5778 5775 5772 5769 5766 5763 5760 5756 5753 5750 5746 5742 5739 5736 5732 5729 5726 5723 5720 5717 5714 5712 5709 5707 5704 5702 5701 5699 5697 5696 5695 5694 5693 5693 5693 5692 5692
5789 5786 5783 5780 5777 5774 5771 5768 5765 5762 5759 5755 5752 5748 5745 5742 5738 5734 5731 5728 5724 5721 5718 5715 5712 5708 5706 5703 5701 5698 5696 5694 5692 5691 5689 5688 5687 5686 5685 5685 5685 5684 5684
5781 5778 5775 5773 5770 5767 5764 5761 5758 5754 5751 5748 5744 5740 5737 5733 5730 5726 5723 5720 5717 5713 5710 5707 5703 5700 5697 5694 5692 5690 5688 5686 5684 5683 5681 5680 5679 5678 5677 5677 5677 5676 5676
5773 5771 5768 5765 5762 5759 5756 5753 5750 5746 5743 5739 5736 5732 5729 5725 5722 5718 5715 5712 5709 5705 5702 5698 5695 5691 5688 5686 5683 5681 5679 5678 5676 5675 5673 5672 5670 5670 5669 5669 5669 5669 5669
5766 5763 5760 5757 5754 5751 5748 5745 5741 5738 5735 5731 5727 5724 5721 5717 5714 5710 5707 5704 5700 5697 5693 5690 5686 5683 5680 5677 5675 5672 5671 5669 5668 5666 5665 5663 5662 5661 5661 5660 5660 5661 5661
5758 5755 5752 5749 5746 5742 5739 5736 5732 5729 5726 5722 5719 5716 5712 5709 5705 5702 5699 5695 5692 5689 5685 5682 5678 5675 5672 5669 5666 5664 5662 5660 5659 5658 5656 5655 5654 5653 5653 5652 5652 5653 5653
5750 5746 5743 5740 5737 5734 5730 5727 5724 5720 5717 5714 5711 5707 5704 5701 5697 5694 5691 5688 5684 5681 5677 5674 5670 5667 5664 5661 5658 5655 5653 5651 5650 5649 5647 5646 5646 5645 5644 5644 5644 5644 5645
5742 5738 5735 5732 5729 5725 5722 5718 5715 5712 5708 5705 5702 5699 5696 5693 5689 5686 5683 5679 5676 5672 5669 5665 5662 5659 5656 5652 5650 5647 5645 5643 5641 5640 5639 5638 5638 5637 5636 5636 5636 5636 5636
5734 5731 5728 5724 5721 5718 5714 5710 5707 5703 5700 5697 5694 5691 5688 5685 5681 5678 5675 5671 5668 5664 5660 5657 5654 5650 5647 5644 5641 5639 5637 5635 5633 5632 5631 5630 5629 5629 5628 5628 5628 5628 5628
5727 5723 5720 5717 5714 5710 5706 5703 5699 5696 5693 5690 5687 5684 5680 5677 5674 5670 5667 5663 5660 5656 5653 5649 5646 5643 5639 5636 5634 5632 5629 5627 5625 5624 5623 5622 5621 5620 5620 5620 5620 5620 5620
5719 5716 5713 5709 5706 5703 5699 5695 5692 5689 5685 5682 5679 5676 5673 5670 5666 5663 5659 5656 5652 5649 5645 5642 5639 5635 5632 5629 5626 5624 5622 5620 5618 5616 5615 5614 5613 5612 5612 5612 5611 5611 5611
5712 5709 5705 5702 5698 5695 5692 5688 5685 5682 5678 5675 5672 5669 5666 5662 5659 5656 5652 5648 5645 5642 5638 5635 5631 5628 5625 5622 5619 5616 5614 5612 5610 5609 5607 5606 5605 5605 5604 5604 5604 5604 5604